Location: Pacheco
(37.9835°N, 122.0752°W)
Time: 23:30:55
(UTC+00:00)

Cosmos 2112 Rocket - Pass Details

Date: 13 April 2024
Orbit: 754 x 785 km, 74.0° (Epoch: 21 May)

Event Time Altitude Azimuth Distance (km) Brightness Sun altitude
Exits shadow 12:17:03 22° 227° (SW) 1,637 5.1 -15.3°
Maximum altitude 12:20:12 49° 292° (WNW) 1,006 4.3 -14.8°
Drops below altitude 10° 12:25:23 10° 7° (N) 2,349 6.9 -13.8°
Sets 12:27:52 0° 13° (NNE) 3,283 7.8 -13.4°
